Weather History for Ft Lauderdale, FL

Change the Weather History Date:

Thursday, December 20, 2012

  Actual Average Record
Temperature  
Mean Temperature 75 °F 70 °F  
Max Temperature 81 °F 77 °F 86 °F (1948)
Min Temperature 69 °F 63 °F 35 °F (1950)
Degree Days  
Heating Degree Days 0 1  
Month to date heating degree days 0 15  
Since 1 July heating degree days 2 17  
Cooling Degree Days 10 6  
Month to date cooling degree days 213 152  
Year to date cooling degree days 4568 4665  
Growing Degree Days 26 (Base 50)    
Moisture  
Dew Point 64 °F    
Average Humidity 67    
Maximum Humidity 84    
Minimum Humidity 49    
Precipitation  
Precipitation 0.00 in 0.09 in 0.50 in (1948)
Month to date precipitation 0.71 1.73  
Year to date precipitation 60.83 61.45  
Snow  
Snow 0.00 in - - ()
Month to date snowfall 0.0  
Since 1 July snowfall 0.0  
Snow Depth 0.00 in    
Sea Level Pressure  
Sea Level Pressure 30.04 in    
Wind  
Wind Speed 8 mph (SSE)    
Max Wind Speed 17 mph    
Max Gust Speed 23 mph    
Visibility 10 miles    
Events      
T = Trace of Precipitation, MM = Missing Value Source: NWS Daily Summary

Daily Weather History Graph

Daily Weather History Graph

Search for Another Location

Airport:

Trip Planner

Search our weather history database for the weather conditions in past years. The results will help you decide how hot, cold, wet, or windy it might be!

Date:

Astronomy

Dec. 20, 2012 Rise Set
Actual Time 7:03 AM EST 5:33 PM EST
Civil Twilight 6:37 AM EST 5:59 PM EST
Nautical Twilight 6:09 AM EST 6:27 PM EST
Astronomical Twilight 5:40 AM EST 6:56 PM EST
Moon 12:23 PM EST (12/20) 12:19 AM EST (12/20)
Length of Visible Light 11h 21m
Length of Day
10h 30m
First Quarter, 55% of the Moon is Illuminated
Dec 20
First Quarter
Dec 28
Full
Jan 4
Last Quarter
Jan 11
New
Jan 18
First Quarter

Hourly Weather History & Observations

Time (EST) Temp. Heat Index Dew Point Humidity Pressure Visibility Wind Dir Wind Speed Gust Speed Precip Events Conditions
12:53 AM 73.0 °F - 63.0 °F 71% 30.07 in 10.0 mi ESE 8.1 mph - N/A   Scattered Clouds
1:53 AM 72.0 °F - 64.0 °F 76% 30.06 in 10.0 mi SE 5.8 mph - N/A   Partly Cloudy
2:53 AM 71.1 °F - 62.1 °F 73% 30.06 in 10.0 mi ESE 3.5 mph - N/A   Partly Cloudy
3:53 AM 70.0 °F - 63.0 °F 78% 30.06 in 10.0 mi SE 5.8 mph - N/A   Partly Cloudy
4:53 AM 72.0 °F - 63.0 °F 73% 30.04 in 10.0 mi SE 8.1 mph - N/A   Partly Cloudy
5:53 AM 72.0 °F - 64.0 °F 76% 30.05 in 10.0 mi SE 6.9 mph - N/A   Partly Cloudy
6:53 AM 71.1 °F - 64.0 °F 78% 30.07 in 10.0 mi SE 3.5 mph - N/A   Scattered Clouds
7:53 AM 73.9 °F - 64.0 °F 71% 30.07 in 10.0 mi SE 6.9 mph - N/A   Scattered Clouds
8:53 AM 77.0 °F - 61.0 °F 58% 30.08 in 10.0 mi SE 8.1 mph - N/A   Partly Cloudy
9:53 AM 79.0 °F - 62.1 °F 56% 30.09 in 10.0 mi SSE 10.4 mph - N/A   Partly Cloudy
10:53 AM 79.0 °F - 63.0 °F 58% 30.09 in 10.0 mi SE 10.4 mph - N/A   Partly Cloudy
11:53 AM 80.1 °F 81.2 °F 62.1 °F 54% 30.08 in 10.0 mi South 11.5 mph - N/A   Clear
12:53 PM 81.0 °F 81.3 °F 59.0 °F 47% 30.04 in 10.0 mi SE 13.8 mph - N/A   Partly Cloudy
1:53 PM 81.0 °F 81.9 °F 62.1 °F 52% 30.01 in 10.0 mi SE 12.7 mph 19.6 mph N/A   Partly Cloudy
2:53 PM 79.0 °F - 64.9 °F 62% 30.00 in 10.0 mi SSE 11.5 mph 19.6 mph N/A   Scattered Clouds
3:53 PM 78.1 °F - 64.9 °F 64% 29.98 in 10.0 mi South 11.5 mph - N/A   Partly Cloudy
4:53 PM 75.9 °F - 64.9 °F 69% 29.98 in 10.0 mi SSE 13.8 mph 17.3 mph N/A   Partly Cloudy
5:53 PM 75.9 °F - 64.9 °F 69% 30.00 in 10.0 mi South 9.2 mph - N/A   Scattered Clouds
6:53 PM 75.0 °F - 64.9 °F 71% 30.02 in 10.0 mi South 5.8 mph - N/A   Partly Cloudy
7:53 PM 73.9 °F - 64.9 °F 73% 30.01 in 10.0 mi South 3.5 mph - N/A   Clear
8:53 PM 73.0 °F - 64.9 °F 76% 30.03 in 10.0 mi West 4.6 mph - N/A   Clear
9:53 PM 72.0 °F - 64.9 °F 78% 30.03 in 10.0 mi WSW 3.5 mph - N/A   Clear
10:53 PM 70.0 °F - 64.9 °F 84% 30.03 in 10.0 mi SW 3.5 mph - N/A   Clear
11:53 PM 70.0 °F - 66.0 °F 87% 30.02 in 10.0 mi SSW 4.6 mph - N/A   Clear